Regional Weather Roundup
Issued by NWS

Home | Current Version | Previous Version | Text Only | Print | Product List | Glossary On
Versions: 1 2 3 4 5 6 7 8 9 10 11 12 13 14 15 16 17 18 19 20 21 22 23 24 25 26 27 28 29 30 31 32 33 34 35 36 37 38 39 40 41 42 43 44 45 46 47 48 49 50
000
ASPQ40 PGUM 310912
RWRPQ
WEATHER ROUNDUP FOR THE MARIANAS AND MICRONESIA
NATIONAL WEATHER SERVICE TIYAN GU
700 PM CHST THU JUL 31 2014

GUZ001>004-311000-
MARIANA ISLANDS-

CITY           SKY/WX    TMP DP  RH WIND       PRES   REMARKS
GUAM AIRPORT   PTCLDY    79  75  89 SE6       29.82R
ANDERSEN AFB   CLEAR     77  73  88 S8        29.82F
ROTA AIRPORT   MOCLDY    79  73  83 S8        29.83R
TINIAN AP      MOCLDY    79  77  94 SE3       29.80S
SAIPAN AP      PTCLDY    81  75  83 SE5       29.83S

$$

PMZ161-311000-
REPUBLIC OF PALAU-

CITY           SKY/WX    TMP DP  RH WIND       PRES   REMARKS
KOROR AP       CLOUDY    84  81  89 S5        29.82S HX  98
KOROR WSO      CLOUDY    84  77  79 S7        29.81S HX  94

$$

PMZ171>174-311000-
FEDERATED STATES OF MICRONESIA-

CITY           SKY/WX    TMP DP  RH WIND       PRES   REMARKS
YAP AIRPORT    CLOUDY    82  77  83 VRB6      29.80F HX  91
CHUUK AP       CLOUDY    84  77  79 N7        29.80R HX  94
POHNPEI AP     CLOUDY    81  77  89 SE3       29.78R
POHNPEI WSO    CLOUDY    79  77  94 SE1       29.83R
KOSRAE AP      NOT AVBL

$$

PMZ181-311000-
REPUBLIC OF THE MARSHALL ISLANDS-

CITY           SKY/WX    TMP DP  RH WIND       PRES   REMARKS
KWAJALEIN AP   CLEAR     82  73  74 CALM      29.87R
MAJURO AP      NOT AVBL
MAJURO WSO     MOCLDY    82  77  83 CALM      29.86R HX  91

$$




USA.gov is the U.S. government's official web portal to all federal, state and local government web resources and services.